Date String (YYYY-MM-DD hh:mm:ss) UTC,Instrument flags,absolute air pressure of the measurement (hPa),sample flow rate (lpm),inlet stack bypass flow (lpm),air temperature of the measurement (°C),ambient temperature measured by the external sensor (°C),aerosol sample conditioner tube jacket temperature (°C),OPC LED temperature (°C),internal box temperature (°C),relative humidity of the measurement (%),span deviation,mass concentration of particles derived from Lorenz-Mie calculation of OPC scattering (μg/m³),mass concentration of particles derived from Lorenz-Mie calculation of OPC scattering (μg/m³),mass concentration of particles derived from Lorenz-Mie calculation of OPC scattering (μg/m³)
DateTimeUTC,F1_M11,P_M11,Q1_M11,Q2_M11,T1_M11,T2_M11,T3_M11,T4_M11,T5_M11,U1_M11,ZSPAN_M11,X0_M11,X2_M11,X1_M11
2023-07-18 20:00:00,SystemResetWarning,0832.4,5.03,000.00,028.4,024.8,000.0,036.5,029.9,23.0,0000.0,0013.63,0006.11,0005.33
2023-07-18 20:01:00,SystemResetWarning,0832.4,5.00,000.00,028.4,025.2,000.0,036.5,029.9,24.6,0000.0,0013.61,0006.07,0005.33
2023-07-18 20:02:00,SystemResetWarning,0832.4,5.00,000.00,028.3,025.6,000.0,036.6,029.9,24.2,0000.0,0013.38,0006.02,0005.34
2023-07-18 20:03:00,SystemResetWarning,0832.5,5.00,000.00,028.4,026.1,000.0,036.6,030.0,22.9,0000.0,0013.29,0006.03,0005.34
2023-07-18 20:04:00,SystemResetWarning,0832.5,5.00,000.00,028.4,026.5,000.0,036.7,030.1,22.7,0000.0,0013.92,0006.08,0005.33
2023-07-18 20:05:00,SystemResetWarning,0832.4,5.01,000.00,028.5,026.9,000.0,036.7,030.2,23.2,0000.0,0015.59,0006.08,0005.32
2023-07-18 20:06:00,SystemResetWarning,0832.4,4.99,000.00,028.5,026.7,000.0,036.7,030.2,22.6,0000.0,0014.43,0006.04,0005.33
2023-07-18 20:07:00,SystemResetWarning,0832.3,4.99,000.00,028.5,025.3,000.0,036.6,030.0,22.9,0000.0,0014.01,0006.03,0005.33
2023-07-18 20:08:00,SystemResetWarning,0832.3,5.00,000.00,028.4,024.9,000.0,036.5,029.9,23.0,0000.0,0014.02,0006.02,0005.33
2023-07-18 20:09:00,SystemResetWarning,0832.3,5.01,000.00,028.4,025.3,000.0,036.5,029.9,23.1,0000.0,0014.21,0006.01,0005.32
2023-07-18 20:10:00,SystemResetWarning,0832.3,5.00,000.00,028.4,025.7,000.0,036.6,029.9,24.0,0000.0,0014.81,0006.04,0005.33
2023-07-18 20:11:00,SystemResetWarning,0832.3,5.00,000.00,028.4,026.2,000.0,036.6,030.0,23.7,0000.0,0015.04,0006.07,0005.33
2023-07-18 20:12:00,SystemResetWarning,0832.3,5.00,000.00,028.4,026.6,000.0,036.7,030.1,22.7,0000.0,0015.08,0006.11,0005.33
2023-07-18 20:13:00,SystemResetWarning,0832.3,5.00,000.00,028.5,027.0,000.0,036.7,030.2,22.5,0000.0,0015.24,0006.15,0005.32
2023-07-18 20:14:00,SystemResetWarning,0832.3,4.99,000.00,028.5,026.8,000.0,036.7,030.3,22.3,0000.0,0015.38,0006.15,0005.32
2023-07-18 20:15:00,SystemResetWarning,0832.3,5.01,000.00,028.5,025.4,000.0,036.6,030.0,23.4,0000.0,0015.07,0006.14,0005.32
2023-07-18 20:16:00,SystemResetWarning,0832.3,5.02,000.00,028.4,025.0,000.0,036.5,029.9,25.0,0000.0,0013.80,0006.12,0005.31
2023-07-18 20:17:00,SystemResetWarning,0832.3,4.99,000.00,028.4,025.4,000.0,036.6,029.9,25.5,0000.0,0013.66,0006.12,0005.28
2023-07-18 20:18:00,SystemResetWarning,0832.3,4.99,000.00,028.4,025.8,000.0,036.6,029.9,25.6,0000.0,0013.22,0006.12,0005.26
2023-07-18 20:19:00,SystemResetWarning,0832.3,5.00,000.00,028.4,026.2,000.0,036.7,030.0,25.3,0000.0,0013.20,0006.13,0005.25
2023-07-18 20:20:00,SystemResetWarning,0832.3,5.01,000.00,028.4,026.6,000.0,036.7,030.1,25.2,0000.0,0013.00,0006.11,0005.23
2023-07-18 20:21:00,SystemResetWarning,0832.3,5.00,000.00,028.5,026.9,000.0,036.7,030.2,25.1,0000.0,0012.29,0006.08,0005.23
2023-07-18 20:22:00,SystemResetWarning,0832.3,4.98,000.00,028.5,026.0,000.0,036.7,030.1,24.4,0000.0,0011.82,0006.05,0005.22
2023-07-18 20:23:00,SystemResetWarning,0832.2,5.00,000.00,028.4,024.9,000.0,036.6,029.9,23.2,0000.0,0012.08,0006.00,0005.20
2023-07-18 20:24:00,SystemResetWarning,0832.2,5.01,000.00,028.4,025.2,000.0,036.6,029.9,22.8,0000.0,0012.00,0005.96,0005.19
2023-07-18 20:25:00,SystemResetWarning,0832.2,5.00,000.00,028.4,025.5,000.0,036.6,029.8,22.7,0000.0,0012.10,0005.91,0005.16
2023-07-18 20:26:00,SystemResetWarning,0832.2,4.99,000.00,028.4,026.0,000.0,036.6,029.9,23.6,0000.0,0013.17,0005.84,0005.14
2023-07-18 20:27:00,SystemResetWarning,0832.1,4.99,000.00,028.4,026.4,000.0,036.7,030.1,23.0,0000.0,0013.85,0005.85,0005.15
2023-07-18 20:28:00,SystemResetWarning,0832.2,5.01,000.00,028.5,026.9,000.0,036.7,030.2,22.6,0000.0,0015.74,0005.91,0005.14
2023-07-18 20:29:00,SystemResetWarning,0832.1,5.01,000.00,028.5,027.1,000.0,036.7,030.3,22.6,0000.0,0016.75,0005.99,0005.15
2023-07-18 20:30:00,SystemResetWarning,0832.0,4.98,000.00,028.5,026.1,000.0,036.7,030.2,23.1,0000.0,0017.00,0006.03,0005.16
2023-07-18 20:31:00,SystemResetWarning,0831.9,5.00,000.00,028.5,025.0,000.0,036.6,030.0,22.2,0000.0,0016.87,0006.02,0005.17
2023-07-18 20:32:00,SystemResetWarning,0831.9,5.01,000.00,028.4,025.3,000.0,036.6,030.0,22.3,0000.0,0016.71,0006.01,0005.17
2023-07-18 20:33:00,SystemResetWarning,0831.9,5.00,000.00,028.4,025.7,000.0,036.6,030.0,22.6,0000.0,0016.74,0005.98,0005.16
2023-07-18 20:34:00,SystemResetWarning,0832.0,5.00,000.00,028.4,026.1,000.0,036.7,030.0,23.0,0000.0,0016.34,0005.99,0005.13
2023-07-18 20:35:00,SystemResetWarning,0831.9,5.00,000.00,028.5,026.6,000.0,036.7,030.2,23.7,0000.0,0016.43,0005.97,0005.11
2023-07-18 20:36:00,SystemResetWarning,0832.0,5.00,000.00,028.5,026.9,000.0,036.7,030.2,23.7,0000.0,0016.67,0005.98,0005.10
2023-07-18 20:37:00,SystemResetWarning,0832.1,4.98,000.00,028.5,025.8,000.0,036.7,030.1,22.4,0000.0,0016.19,0005.98,0005.11
2023-07-18 20:38:00,SystemResetWarning,0832.0,5.00,000.00,028.4,024.8,000.0,036.6,029.9,23.2,0000.0,0015.91,0005.97,0005.10
2023-07-18 20:39:00,SystemResetWarning,0832.1,5.01,000.00,028.4,025.1,000.0,036.5,029.9,24.0,0000.0,0014.18,0005.93,0005.09
2023-07-18 20:40:00,SystemResetWarning,0832.0,5.01,000.00,028.4,025.5,000.0,036.6,029.9,23.6,0000.0,0013.10,0005.84,0005.08
2023-07-18 20:41:00,SystemResetWarning,0832.1,4.99,000.00,028.4,026.0,000.0,036.6,030.0,23.4,0000.0,0012.54,0005.77,0005.07
2023-07-18 20:42:00,SystemResetWarning,0832.1,5.00,000.00,028.4,026.4,000.0,036.7,030.1,25.0,0000.0,0012.37,0005.74,0005.05
2023-07-18 20:43:00,SystemResetWarning,0832.2,5.01,000.00,028.5,026.8,000.0,036.7,030.2,25.6,0000.0,0012.55,0005.72,0005.03
2023-07-18 20:44:00,SystemResetWarning,0832.2,4.99,000.00,028.5,026.5,000.0,036.7,030.2,23.9,0000.0,0012.25,0005.67,0005.02
2023-07-18 20:45:00,SystemResetWarning,0832.1,4.99,000.00,028.5,025.1,000.0,036.6,030.0,23.8,0000.0,0012.41,0005.67,0005.02
2023-07-18 20:46:00,SystemResetWarning,0832.1,5.02,000.00,028.4,024.8,000.0,036.5,029.9,24.2,0000.0,0012.86,0005.69,0005.05
2023-07-18 20:47:00,SystemResetWarning,0832.1,5.01,000.00,028.4,025.2,000.0,036.6,029.9,24.5,0000.0,0013.37,0005.73,0005.07
2023-07-18 20:48:00,SystemResetWarning,0832.1,5.00,000.00,028.4,025.7,000.0,036.6,029.9,25.1,0000.0,0013.73,0005.73,0005.08
2023-07-18 20:49:00,SystemResetWarning,0832.1,5.01,000.00,028.4,026.1,000.0,036.7,030.0,24.7,0000.0,0013.76,0005.74,0005.08
2023-07-18 20:50:00,SystemResetWarning,0832.0,5.00,000.00,028.4,026.6,000.0,036.7,030.1,24.9,0000.0,0013.66,0005.75,0005.08
2023-07-18 20:51:00,SystemResetWarning,0832.1,5.00,000.00,028.5,027.0,000.0,036.7,030.2,24.9,0000.0,0013.62,0005.77,0005.10
2023-07-18 20:52:00,SystemResetWarning,0832.1,4.99,000.00,028.5,026.6,000.0,036.7,030.2,24.6,0000.0,0014.13,0005.80,0005.10
2023-07-18 20:53:00,SystemResetWarning,0832.1,4.99,000.00,028.5,025.3,000.0,036.6,030.0,24.7,0000.0,0014.14,0005.80,0005.10
2023-07-18 20:54:00,SystemResetWarning,0832.1,5.01,000.00,028.4,025.0,000.0,036.6,029.9,25.4,0000.0,0014.73,0005.82,0005.11
2023-07-18 20:55:00,SystemResetWarning,0832.1,5.01,000.00,028.4,025.4,000.0,036.6,029.9,24.7,0000.0,0015.24,0005.84,0005.11
2023-07-18 20:56:00,SystemResetWarning,0832.1,5.00,000.00,028.4,025.8,000.0,036.6,029.9,26.2,0000.0,0015.39,0005.89,0005.10
2023-07-18 20:57:00,SystemResetWarning,0832.2,5.00,000.00,028.4,026.3,000.0,036.7,030.0,25.5,0000.0,0015.79,0005.89,0005.06
2023-07-18 20:58:00,SystemResetWarning,0832.1,5.00,000.00,028.5,026.7,000.0,036.7,030.1,23.7,0000.0,0015.39,0005.84,0005.02
2023-07-18 20:59:00,SystemResetWarning,0832.1,4.98,000.00,028.5,026.9,000.0,036.7,030.2,23.3,0000.0,0015.92,0005.84,0004.99
